| time (UTC) | temp C | wind direction | speed KPH | gust KPH | rain 1hr cm | rain 24hr cm | rain mn cm | humidity % | barometer mb |
| 20260508234546 | 15 | 227 | 0.0 | 0.0 | 0.00 | 0.00 | 0.00 | 61 | 1006.4 |
| 20260508233058 | 16 | 225 | 0.0 | 0.0 | 0.00 | 0.00 | 0.00 | 60 | 1006.3 |
| 20260508224557 | 16 | 180 | 0.0 | 0.0 | 0.00 | 0.00 | 0.00 | 58 | 1006.3 |
| 20260508221546 | 17 | 215 | 0.0 | 0.0 | 0.00 | 0.00 | 0.00 | 45 | 1006.5 |
| 20260508220022 | 18 | 233 | 0.0 | 0.0 | 0.00 | 0.00 | 0.00 | 44 | 1006.6 |
| 20260508213017 | 17 | 195 | 0.0 | 0.0 | 0.00 | 0.00 | 0.00 | 47 | 1006.8 |
| 20260508204509 | 18 | 183 | 0.0 | 0.0 | 0.00 | 0.00 | 0.00 | 45 | 1006.9 |
| 20260508200042 | 18 | 209 | 0.0 | 0.0 | 0.00 | 0.00 | 0.00 | 47 | 1007.6 |
| 20260508191600 | 17 | 190 | 0.0 | 0.0 | 0.00 | 0.00 | 0.00 | 51 | 1008.4 |
| 20260508190006 | 16 | 174 | 0.0 | 1.6 | 0.00 | 0.00 | 0.00 | 49 | 1008.7 |
| 20260508181544 | 18 | 242 | 0.0 | 0.0 | 0.00 | 0.00 | 0.00 | 41 | 1009.1 |
| 20260508180048 | 19 | 296 | 0.0 | 0.0 | 0.00 | 0.00 | 0.00 | 40 | 1009.2 |
| 20260508171551 | 16 | 201 | 0.0 | 0.0 | 0.00 | 0.00 | 0.00 | 50 | 1010.2 |
| 20260508153047 | 14 | 34 | 0.0 | 0.0 | 0.00 | 0.00 | 0.00 | 49 | 1011.3 |
| 20260508151559 | 16 | 120 | 0.0 | 1.6 | 0.00 | 0.00 | 0.00 | 47 | 1011.4 |
| 20260508144525 | 13 | 32 | 0.0 | 0.0 | 0.00 | 0.00 | 0.00 | 55 | 1011.5 |
| 20260508131542 | 12 | 247 | 0.0 | 1.6 | 0.00 | 0.00 | 0.00 | 36 | 1012.1 |
| 20260508130023 | 11 | 247 | 0.0 | 0.0 | 0.00 | 0.00 | 0.00 | 6 | 1012.2 |
| 20260508113010 | 5 | 246 | 0.0 | 0.0 | 0.00 | 0.00 | 0.00 | 1 | 1011.5 |
| 20260508104501 | 5 | 246 | 0.0 | 0.0 | 0.00 | 0.00 | 0.00 | 1 | 1011.2 |
| 20260508103044 | 5 | 246 | 0.0 | 0.0 | 0.00 | 0.00 | 0.00 | 1 | 1011.0 |
| 20260508084506 | 6 | 246 | 0.0 | 0.0 | 0.00 | 0.00 | 0.00 | 1 | 1011.1 |
| 20260508080014 | 6 | 246 | 0.0 | 0.0 | 0.00 | 0.00 | 0.00 | 1 | 1011.1 |
| 20260508060131 | 6 | 246 | 0.0 | 0.0 | 0.00 | 0.00 | 0.00 | 15 | 1011.6 |
| 20260508060001 | 6 | 246 | 0.0 | 0.0 | 0.00 | 0.00 | 0.00 | 16 | 1011.6 |
| 20260508054622 | 6 | 246 | 0.0 | 0.0 | 0.00 | 0.00 | 0.00 | 22 | 1011.5 |
| 20260508053045 | 7 | 246 | 0.0 | 0.0 | 0.00 | 0.00 | 0.00 | 29 | 1011.8 |
| 20260508051528 | 7 | 246 | 0.0 | 0.0 | 0.00 | 0.00 | 0.00 | 36 | 1011.7 |
| 20260508044506 | 7 | 246 | 0.0 | 0.0 | 0.00 | 0.00 | 0.00 | 44 | 1011.7 |
| 20260508043009 | 7 | 246 | 0.0 | 0.0 | 0.00 | 0.00 | 0.00 | 47 | 1011.5 |
| 20260508024612 | 8 | 250 | 0.0 | 0.0 | 0.00 | 0.00 | 0.00 | 59 | 1012.1 |
| 20260508023019 | 9 | 249 | 0.0 | 0.0 | 0.00 | 0.00 | 0.00 | 60 | 1012.0 |
| 20260508011614 | 10 | 247 | 0.0 | 0.0 | 0.00 | 0.00 | 0.00 | 57 | 1011.4 |